Starlink 3828

operational
NORAD ID: 52469 Int'l Des: 2022-049 Owner: SPXS Country: US Constellation: starlink
LEOCIRCULAR

Starlink 3828について

説明を読み込み中...

リアルタイム位置

3D地球を読み込み中...

次回通過

高度履歴

Altitude vs Time

uPlot chart will show altitude changes over time

軌道要素

1 52469U 22049U 25304.22452624 .00002658 00000-0 18492-3 0 9992
2 52469 53.2179 280.3145 0000829 98.5553 261.5533 15.08861551192706
Epoch: Oct 31, 2025 • Age: 30 hours

現在のステータス

高度 555.2 km
速度 7.58 km/s
衛星直下点 -44.47°S, 16.95°E
打ち上げ日 May 6, 2022
運用期間 3.4 years
タイプ internet

技術仕様

分類 Payload
質量 297.00 kg
乾燥質量 220.00 kg
総質量 297.00 kg
長さ 0.20 m
直径 2.80 m
スパン 9.00 m
形状 Box + pan
製造者 SPXS
バスタイプ Starlink
フェーズステータス In Orbit
所有者/国 SPXS/US

大規模コンステレーション

Loading constellations...